Location: Gwatt
(46.7204°N, 7.6223°E)
Time: 16:54:55
(UTC+00:00)

deb Explorer IX - Pass Details

Date: 22 January 2021
Orbit: 537 x 1102 km, 38.8° (Epoch: 04 March)

Event Time Altitude Azimuth Distance (km) Brightness Sun altitude
Rises 22:27:49 0° 265° (W) 3,114 - -58.9°
Reaches altitude 10° 22:31:13 10° 244° (WSW) 2,075 - -59.2°
Maximum altitude 22:34:01 16° 208° (SSW) 1,651 - -59.5°
Drops below altitude 10° 22:36:37 10° 171° (S) 1,912 - -59.7°
Sets 22:39:33 0° 148° (SSE) 2,741 - -59.9°
